Home > Weather > Acworth > Past weeks

Flag for U.S.A. Weather for the Past 2 Weeks in Acworth, Georgia, U.S.A.

Now
27 °F

Clear.


Feels Like: 27 °F
Forecast: 27 / 49 °F
Wind: No wind

Location: Cartersville Airport

Current Time: Feb 6, 2016 at 4:49:22 AM

Latest Report: Feb 6, 2016 at 3:53 AM


Visibility: 10 mi

Pressure: 30.36 "Hg

Humidity: 78%

Dew point: 21 °F

Location of AcworthLocation

Historic Weather in Acworth — Graph

°F

Acworth Temperature Yesterday

Maximum temperature yesterday: 47 °F (at 2:53 PM)
Minimum temperature yesterday: 29 °F (at 4:53 AM)
Average temperature yesterday: 37 °F

High & Low Weather Summary for the Past Weeks

 TemperatureHumidityPressure
High74 °F (Feb 2, 3:53 PM)100% (Jan 22, 6:02 PM)30.45 "Hg (Jan 22, 6:02 PM)
Low21 °F (Jan 24, 7:53 AM)25% (Jan 28, 2:53 PM)29.59 "Hg (Jan 22, 2:53 PM)
Average44 °F74%30.05 "Hg
* Reported Jan 22 3:53 AM — Feb 6 3:53 AM, Acworth, Weather by CustomWeather, © 2016

Note: Actual official high and low records may vary slightly from our data, if they occured in-between our weather recording intervals... More about our weather records

Advertising

Acworth Weather History for the Previous 24 Hours

 ConditionsComfort  
Time TempWeatherWind HumidityBarometerVisibility
3:53 AM
Sat, Feb 6
27 °FClear.No wind78%30.36 "Hg10 mi
2:53 AM26 °FClear.No wind81%30.38 "Hg10 mi
1:53 AM27 °FClear.No wind78%30.38 "Hg10 mi
12:53 AM28 °FClear.No wind75%30.39 "Hg10 mi
11:53 PM
Fri, Feb 5
29 °FClear.No wind72%30.38 "Hg10 mi
10:53 PM30 °FClear.No wind69%30.38 "Hg10 mi
9:53 PM30 °FClear.No wind61%30.38 "Hg10 mi
8:53 PM34 °FClear.No wind52%30.39 "Hg10 mi
7:53 PM37 °FClear.No wind44%30.39 "Hg10 mi
6:53 PM40 °FClear.3 mph36%30.38 "Hg10 mi
5:53 PM44 °FSunny.7 mph29%30.37 "Hg10 mi
4:53 PM46 °FSunny.10 mph27%30.37 "Hg10 mi
3:53 PM47 °FSunny.6 mph26%30.35 "Hg10 mi
2:53 PM47 °FSunny.6 mph28%30.37 "Hg10 mi
1:53 PM46 °FSunny.7 mph29%30.38 "Hg10 mi
12:53 PM44 °FSunny.7 mph31%30.42 "Hg10 mi
11:53 AM43 °FSunny.12 mph34%30.45 "Hg10 mi
10:53 AM41 °FSunny.9 mph36%30.43 "Hg10 mi
9:53 AM37 °FSunny.7 mph42%30.43 "Hg10 mi
8:53 AM33 °FSunny.8 mph52%30.41 "Hg10 mi
7:53 AM30 °FSunny.6 mph61%30.39 "Hg10 mi
6:53 AM30 °FClear.5 mph61%30.37 "Hg10 mi
5:53 AM30 °FClear.6 mph64%30.34 "Hg10 mi
4:53 AM29 °FClear.No wind66%30.37 "Hg10 mi
Weather by CustomWeather, © 2016

See weather overviewHow to use our weather pages